Time,TemperatureF,DewpointF,PressureIn,WindDirection,WindDirectionDegrees,WindSpeedMPH,WindSpeedGustMPH,Humidity,HourlyPrecipIn,Conditions,Clouds,dailyrainin,SoftwareType,DateUTC
2013-10-04 00:09:00,63.1,61.0,29.54,South,188,0.0,0.0,94,0.00,,,0.00,weatherlink.com 1.10,2013-10-04 05:09:00,
2013-10-04 00:24:00,63.0,62.0,29.54,South,188,0.0,0.0,95,0.00,,,0.00,weatherlink.com 1.10,2013-10-04 05:24:00,
2013-10-04 00:39:00,62.9,61.0,29.54,South,188,0.0,0.0,94,0.00,,,0.00,weatherlink.com 1.10,2013-10-04 05:39:00,
2013-10-04 00:54:00,62.6,61.0,29.54,South,188,0.0,0.0,94,0.00,,,0.00,weatherlink.com 1.10,2013-10-04 05:54:00,
2013-10-04 01:09:00,62.4,61.0,29.54,South,188,0.0,0.0,94,0.00,,,0.00,weatherlink.com 1.10,2013-10-04 06:09:00,
2013-10-04 01:24:00,62.2,61.0,29.54,South,188,0.0,0.0,95,0.00,,,0.00,weatherlink.com 1.10,2013-10-04 06:24:00,
2013-10-04 01:39:00,62.3,61.0,29.54,South,188,0.0,0.0,95,0.00,,,0.00,weatherlink.com 1.10,2013-10-04 06:39:00,
2013-10-04 01:54:00,62.5,61.0,29.54,South,188,0.0,0.0,95,0.00,,,0.00,weatherlink.com 1.10,2013-10-04 06:54:00,
2013-10-04 02:09:00,62.6,61.0,29.54,South,188,0.0,0.0,95,0.00,,,0.00,weatherlink.com 1.10,2013-10-04 07:09:00,
2013-10-04 02:24:00,62.4,61.0,29.53,South,188,0.0,0.0,95,0.00,,,0.00,weatherlink.com 1.10,2013-10-04 07:24:00,
2013-10-04 02:39:00,62.2,61.0,29.53,South,188,0.0,0.0,95,0.00,,,0.00,weatherlink.com 1.10,2013-10-04 07:39:00,
2013-10-04 02:54:00,61.9,61.0,29.52,South,188,0.0,0.0,95,0.00,,,0.00,weatherlink.com 1.10,2013-10-04 07:54:00,
2013-10-04 03:09:00,61.6,60.0,29.52,South,188,0.0,0.0,95,0.00,,,0.00,weatherlink.com 1.10,2013-10-04 08:09:00,
2013-10-04 03:24:00,61.5,60.0,29.52,South,188,0.0,0.0,95,0.00,,,0.00,weatherlink.com 1.10,2013-10-04 08:24:00,
2013-10-04 03:39:00,61.3,60.0,29.52,South,188,0.0,0.0,95,0.00,,,0.00,weatherlink.com 1.10,2013-10-04 08:39:00,
2013-10-04 03:54:00,61.0,60.0,29.53,South,188,0.0,0.0,95,0.00,,,0.00,weatherlink.com 1.10,2013-10-04 08:54:00,
2013-10-04 04:09:00,60.9,60.0,29.52,South,188,0.0,0.0,95,0.00,,,0.00,weatherlink.com 1.10,2013-10-04 09:09:00,
2013-10-04 04:24:00,60.7,59.0,29.53,South,188,0.0,0.0,95,0.00,,,0.00,weatherlink.com 1.10,2013-10-04 09:24:00,
2013-10-04 04:39:00,60.5,59.0,29.53,South,188,0.0,0.0,95,0.00,,,0.00,weatherlink.com 1.10,2013-10-04 09:39:00,
2013-10-04 04:54:00,60.4,59.0,29.54,South,188,0.0,0.0,95,0.00,,,0.00,weatherlink.com 1.10,2013-10-04 09:54:00,
2013-10-04 05:09:00,60.2,59.0,29.54,South,188,0.0,0.0,95,0.00,,,0.00,weatherlink.com 1.10,2013-10-04 10:09:00,
2013-10-04 05:24:00,60.0,59.0,29.54,South,188,0.0,0.0,95,0.00,,,0.00,weatherlink.com 1.10,2013-10-04 10:24:00,
2013-10-04 05:39:00,59.9,59.0,29.55,South,188,0.0,0.0,95,0.00,,,0.00,weatherlink.com 1.10,2013-10-04 10:39:00,
2013-10-04 05:54:00,59.7,58.0,29.55,South,188,0.0,0.0,95,0.00,,,0.00,weatherlink.com 1.10,2013-10-04 10:54:00,
2013-10-04 06:09:00,59.6,58.0,29.55,South,188,0.0,0.0,95,0.00,,,0.00,weatherlink.com 1.10,2013-10-04 11:09:00,
2013-10-04 06:24:00,59.4,58.0,29.55,South,188,0.0,0.0,95,0.00,,,0.00,weatherlink.com 1.10,2013-10-04 11:24:00,
2013-10-04 06:39:00,59.3,58.0,29.56,South,188,0.0,0.0,95,0.00,,,0.00,weatherlink.com 1.10,2013-10-04 11:39:00,
2013-10-04 06:54:00,59.3,58.0,29.56,South,188,0.0,0.0,95,0.00,,,0.00,weatherlink.com 1.10,2013-10-04 11:54:00,
2013-10-04 07:09:00,59.3,58.0,29.57,South,188,0.0,0.0,96,0.00,,,0.00,weatherlink.com 1.10,2013-10-04 12:09:00,
2013-10-04 07:24:00,59.4,58.0,29.57,South,188,0.0,0.0,96,0.00,,,0.00,weatherlink.com 1.10,2013-10-04 12:24:00,
2013-10-04 07:39:00,59.9,59.0,29.58,South,188,0.0,0.0,96,0.00,,,0.00,weatherlink.com 1.10,2013-10-04 12:39:00,
2013-10-04 07:54:00,60.9,60.0,29.58,South,188,0.0,0.0,96,0.00,,,0.00,weatherlink.com 1.10,2013-10-04 12:54:00,
2013-10-04 08:09:00,62.6,62.0,29.58,West,281,0.0,0.0,97,0.00,,,0.00,weatherlink.com 1.10,2013-10-04 13:09:00,
2013-10-04 08:25:00,64.2,63.0,29.58,WNW,284,0.0,0.0,97,0.00,,,0.00,weatherlink.com 1.10,2013-10-04 13:25:00,
2013-10-04 08:40:00,65.3,65.0,29.59,WNW,284,0.0,0.0,97,0.00,,,0.00,weatherlink.com 1.10,2013-10-04 13:40:00,
2013-10-04 08:55:00,66.3,66.0,29.59,WNW,284,0.0,0.0,97,0.00,,,0.00,weatherlink.com 1.10,2013-10-04 13:55:00,
2013-10-04 09:10:00,67.4,66.0,29.59,NNW,344,0.0,0.0,95,0.00,,,0.00,weatherlink.com 1.10,2013-10-04 14:10:00,
2013-10-04 09:25:00,68.1,66.0,29.59,NNE,23,0.0,0.0,93,0.00,,,0.00,weatherlink.com 1.10,2013-10-04 14:25:00,
2013-10-04 09:40:00,68.9,66.0,29.59,ESE,112,0.0,1.0,91,0.00,,,0.00,weatherlink.com 1.10,2013-10-04 14:40:00,
2013-10-04 09:55:00,69.9,67.0,29.60,ENE,69,0.0,1.0,91,0.00,,,0.00,weatherlink.com 1.10,2013-10-04 14:55:00,
2013-10-04 10:10:00,71.3,68.0,29.60,NNW,335,0.0,1.0,88,0.00,,,0.00,weatherlink.com 1.10,2013-10-04 15:10:00,
2013-10-04 10:25:00,71.7,69.0,29.60,South,189,0.0,1.0,90,0.00,,,0.00,weatherlink.com 1.10,2013-10-04 15:25:00,
2013-10-04 10:40:00,72.7,68.0,29.59,SSW,203,0.0,1.0,85,0.00,,,0.00,weatherlink.com 1.10,2013-10-04 15:40:00,
2013-10-04 10:55:00,74.0,68.0,29.59,SSE,166,0.0,3.0,82,0.00,,,0.00,weatherlink.com 1.10,2013-10-04 15:55:00,
2013-10-04 11:10:00,75.3,69.0,29.59,South,180,0.0,1.0,81,0.00,,,0.00,weatherlink.com 1.10,2013-10-04 16:10:00,
2013-10-04 11:25:00,76.9,70.0,29.58,West,281,0.0,1.0,78,0.00,,,0.00,weatherlink.com 1.10,2013-10-04 16:25:00,
2013-10-04 11:40:00,77.8,70.0,29.58,South,186,0.0,3.0,77,0.00,,,0.00,weatherlink.com 1.10,2013-10-04 16:40:00,
2013-10-04 11:55:00,79.0,69.0,29.58,NNE,22,0.0,5.0,72,0.00,,,0.00,weatherlink.com 1.10,2013-10-04 16:55:00,
2013-10-04 12:10:00,80.5,70.0,29.57,SSE,159,0.0,1.0,71,0.00,,,0.00,weatherlink.com 1.10,2013-10-04 17:10:00,
2013-10-04 12:25:00,80.9,70.0,29.57,South,178,0.0,1.0,70,0.00,,,0.00,weatherlink.com 1.10,2013-10-04 17:25:00,
2013-10-04 13:11:00,81.5,70.0,29.55,South,173,2.0,2.0,68,0.00,,,0.00,weatherlink.com 1.10,2013-10-04 18:11:00,
2013-10-04 13:26:00,81.4,69.0,29.54,South,182,0.0,3.0,67,0.00,,,0.00,weatherlink.com 1.10,2013-10-04 18:26:00,
2013-10-04 13:41:00,81.4,72.0,29.53,SSW,194,0.0,3.0,72,0.00,,,0.00,weatherlink.com 1.10,2013-10-04 18:41:00,
2013-10-04 13:56:00,81.6,70.0,29.53,WSW,255,0.0,3.0,68,0.00,,,0.00,weatherlink.com 1.10,2013-10-04 18:56:00,
2013-10-04 14:11:00,81.8,69.0,29.52,SSW,196,0.0,2.0,65,0.00,,,0.00,weatherlink.com 1.10,2013-10-04 19:11:00,
2013-10-04 14:26:00,81.2,71.0,29.52,NNW,331,0.0,1.0,72,0.00,,,0.00,weatherlink.com 1.10,2013-10-04 19:26:00,
2013-10-04 14:41:00,80.8,71.0,29.52,South,183,0.0,1.0,73,0.00,,,0.00,weatherlink.com 1.10,2013-10-04 19:41:00,
2013-10-04 14:56:00,79.9,71.0,29.52,South,183,0.0,0.0,75,0.00,,,0.00,weatherlink.com 1.10,2013-10-04 19:56:00,
2013-10-04 15:11:00,79.1,72.0,29.51,South,183,0.0,0.0,78,0.00,,,0.00,weatherlink.com 1.10,2013-10-04 20:11:00,
2013-10-04 15:26:00,79.4,69.0,29.51,SSW,207,1.0,2.0,70,0.00,,,0.00,weatherlink.com 1.10,2013-10-04 20:26:00,
2013-10-04 15:41:00,80.0,72.0,29.51,SSW,205,0.0,0.0,76,0.00,,,0.00,weatherlink.com 1.10,2013-10-04 20:41:00,
2013-10-04 15:56:00,79.9,72.0,29.51,SSW,205,0.0,0.0,77,0.00,,,0.00,weatherlink.com 1.10,2013-10-04 20:56:00,
2013-10-04 16:11:00,79.5,72.0,29.51,SSW,205,0.0,0.0,78,0.00,,,0.00,weatherlink.com 1.10,2013-10-04 21:11:00,
2013-10-04 16:26:00,79.2,72.0,29.51,SSW,205,0.0,0.0,78,0.00,,,0.00,weatherlink.com 1.10,2013-10-04 21:26:00,
2013-10-04 16:41:00,79.3,72.0,29.51,WNW,283,0.0,0.0,78,0.00,,,0.00,weatherlink.com 1.10,2013-10-04 21:41:00,
2013-10-04 16:56:00,78.6,72.0,29.51,WNW,283,0.0,0.0,81,0.00,,,0.00,weatherlink.com 1.10,2013-10-04 21:56:00,
2013-10-04 17:11:00,77.5,71.0,29.51,WNW,283,0.0,0.0,81,0.00,,,0.00,weatherlink.com 1.10,2013-10-04 22:11:00,
2013-10-04 17:26:00,76.5,71.0,29.51,WNW,283,0.0,0.0,82,0.00,,,0.00,weatherlink.com 1.10,2013-10-04 22:26:00,
2013-10-04 17:41:00,75.5,71.0,29.51,WNW,283,0.0,0.0,85,0.00,,,0.00,weatherlink.com 1.10,2013-10-04 22:41:00,
2013-10-04 17:56:00,74.6,70.0,29.52,WNW,283,0.0,0.0,85,0.00,,,0.00,weatherlink.com 1.10,2013-10-04 22:56:00,
2013-10-04 18:11:00,73.7,69.0,29.52,WNW,283,0.0,0.0,86,0.00,,,0.00,weatherlink.com 1.10,2013-10-04 23:11:00,
2013-10-04 18:26:00,73.1,69.0,29.52,WNW,283,0.0,0.0,86,0.00,,,0.00,weatherlink.com 1.10,2013-10-04 23:26:00,
2013-10-04 18:41:00,72.2,69.0,29.52,WNW,283,0.0,0.0,88,0.00,,,0.00,weatherlink.com 1.10,2013-10-04 23:41:00,
2013-10-04 18:56:00,71.6,68.0,29.52,WNW,283,0.0,0.0,89,0.00,,,0.00,weatherlink.com 1.10,2013-10-04 23:56:00,
2013-10-04 19:11:00,71.1,68.0,29.52,WNW,283,0.0,0.0,89,0.00,,,0.00,weatherlink.com 1.10,2013-10-05 00:11:00,
2013-10-04 19:26:00,70.5,68.0,29.52,WNW,283,0.0,0.0,90,0.00,,,0.00,weatherlink.com 1.10,2013-10-05 00:26:00,
2013-10-04 19:41:00,70.0,67.0,29.53,WNW,283,0.0,0.0,90,0.00,,,0.00,weatherlink.com 1.10,2013-10-05 00:41:00,
2013-10-04 19:56:00,69.7,67.0,29.53,WNW,283,0.0,0.0,91,0.00,,,0.00,weatherlink.com 1.10,2013-10-05 00:56:00,
2013-10-04 20:11:00,69.3,67.0,29.53,WNW,283,0.0,0.0,91,0.00,,,0.00,weatherlink.com 1.10,2013-10-05 01:11:00,
2013-10-04 20:26:00,68.9,67.0,29.54,WNW,283,0.0,0.0,92,0.00,,,0.00,weatherlink.com 1.10,2013-10-05 01:26:00,
2013-10-04 20:41:00,68.5,66.0,29.54,WNW,283,0.0,0.0,92,0.00,,,0.00,weatherlink.com 1.10,2013-10-05 01:41:00,
2013-10-04 20:56:00,68.2,66.0,29.54,WNW,283,0.0,0.0,93,0.00,,,0.00,weatherlink.com 1.10,2013-10-05 01:56:00,
2013-10-04 21:11:00,67.9,66.0,29.55,WNW,283,0.0,0.0,93,0.00,,,0.00,weatherlink.com 1.10,2013-10-05 02:11:00,
2013-10-04 21:26:00,67.6,66.0,29.55,WNW,283,0.0,0.0,93,0.00,,,0.00,weatherlink.com 1.10,2013-10-05 02:26:00,
2013-10-04 21:41:00,67.3,65.0,29.55,WNW,283,0.0,0.0,93,0.00,,,0.00,weatherlink.com 1.10,2013-10-05 02:41:00,
2013-10-04 21:56:00,67.1,65.0,29.55,WNW,283,0.0,0.0,93,0.00,,,0.00,weatherlink.com 1.10,2013-10-05 02:56:00,
2013-10-04 22:11:00,66.8,65.0,29.55,WNW,283,0.0,0.0,94,0.00,,,0.00,weatherlink.com 1.10,2013-10-05 03:11:00,
2013-10-04 22:26:00,66.5,65.0,29.55,WNW,283,0.0,0.0,94,0.00,,,0.00,weatherlink.com 1.10,2013-10-05 03:26:00,
2013-10-04 22:41:00,66.3,65.0,29.55,WNW,283,0.0,0.0,94,0.00,,,0.00,weatherlink.com 1.10,2013-10-05 03:41:00,
2013-10-04 22:56:00,66.0,64.0,29.55,WNW,283,0.0,0.0,94,0.00,,,0.00,weatherlink.com 1.10,2013-10-05 03:56:00,
2013-10-04 23:11:00,65.8,64.0,29.55,WNW,283,0.0,0.0,94,0.00,,,0.00,weatherlink.com 1.10,2013-10-05 04:11:00,
2013-10-04 23:26:00,65.5,64.0,29.54,WNW,283,0.0,0.0,94,0.00,,,0.00,weatherlink.com 1.10,2013-10-05 04:26:00,
2013-10-04 23:41:00,65.2,64.0,29.55,WNW,283,0.0,0.0,94,0.00,,,0.00,weatherlink.com 1.10,2013-10-05 04:41:00,
2013-10-04 23:56:00,65.0,63.0,29.54,WNW,283,0.0,0.0,94,0.00,,,0.00,weatherlink.com 1.10,2013-10-05 04:56:00,